Location: Aetna Mine
(37.6183°N, 107.6045°W)
Time: 23:56:48
(UTC+00:00)

Meteor 2-20 - Pass Details

Date: 18 September 2020
Orbit: 938 x 959 km, 82.5° (Epoch: 27 October)

Event Time Altitude Azimuth Distance (km) Brightness Sun altitude
Rises 12:19:34 0° 190° (S) 3,621 7.3 -7.9°
Reaches altitude 10° 12:22:04 10° 192° (SSW) 2,677 6.6 -7.4°
Maximum altitude 12:28:11 76° 277° (W) 985 4.4 -6.2°
Drops below altitude 10° 12:34:20 10° 4° (N) 2,681 7.0 -5.0°
Sets 12:36:50 0° 6° (N) 3,627 7.6 -4.5°
